Погода в Зырянке

Погода в Зырянке : погода сейчас, прогноз погоды и архив. Всё, что Вы хотите узнать о погоде в Зырянке!

Хотите узнать прогноз погоды в Зырянке? Тогда Вам сюда: Погода в Зырянке

Поиск расширенной информации на нашем сайте:

Другие новости

Новости СМИ2

Главная страница сайта

Новости сайта

03.07.2017

Напоминаем, что на нашем специализированном сайте Метеоцентр.Азия вы можете получить высокодетализированные автоматические прогнозы погоды по пунктам России, СНГ и мира в авиационном формате (включающие направление и скорость ветра, видимость, явления погоды, количество и форму облачности, нижнюю и верхнюю границу облачности).

Рекомендуем: 2016 следующий год какого животного кого

Погода в Зырянке - сегодня

Время (UTC), дата Ветер
(°,м/с) 
Видим.   Явления Облачность Т
(°С)
Тd
(°С)
f(%) Тe
(°С)
Pmin
(гПа)
dP
(гПа)
Po
(мм)
O2
(г/м3)
Тmin Tmax R s Состояние
почвы
12 16.04.18 340 (С) 20000 м    4/0 верхняя 
[Ci fib]
-12.5 -15.2 80 -12  1001.5  -0.2  747  317           
15 16.04.18 тихо ()   20000 м    ясно 
-17.5 -20.1 80 -18  1000.8  -0.9  746  323           
00 17.04.18 100 (В) 20000 м    3/0 верхняя 
[Ci fib]
-8 -12.1 72 -8  998  -1  744  310           
03 17.04.18 200 (Ю) 20000 м    ясно 
-4.1 -10.9 59 -4  997  -0.9  744  305           
06 17.04.18 200 (Ю) 20000 м    3/0 
[Cu hum]
-3.2 -11 55 -4  996.7  -0.2  744  304           
09 17.04.18 210 (ЮЗ) 20000 м    ясно 
-4.2 -12.1 54 -5  997.5  744  306    -2.7       
12 17.04.18 180 (Ю) 20000 м    ясно 
-8.5 -13.3 68 -10  999  1.1  745  311           
15 17.04.18 тихо ()   20000 м    ясно 
-16.4 -18.3 85 -16  1000.1  746  321           
18 17.04.18 тихо ()   20000 м    ясно 
-18.4 -20.3 85 -18  1001.4  1.1  747  324           
21 17.04.18 110 (В) 20000 м    3/0 верхняя 
[Ci fib]
-13.4 -16.1 80 -13  1002.6  1.3  748  318  -19.8      66  неравномерный
мокрый или
старый снег
100% 
00 18.04.18 100 (В) 20000 м    6/0 верхняя 
[Ci fib]
-5.7 -12.4 59 -7  1002.9  0.6  748  309           
03 18.04.18 030 (СВ) 20000 м    10/0 верхняя 
[Ci fib]
-1.7 -10 53 -1  1003.1  0.2  748  304           
06 18.04.18 тихо ()   20000 м    8/0 верхняя 
[Ci fib]
-0.6 -9.5 51 -1  1003.6  0.5  749  303           
12 18.04.18 330 (СЗ) 20000 м    6/0 верхняя 
[Ci fib]
-8.8 -14.8 62 -9  1006.6  1.5  751  314           
15 18.04.18 300 (СЗ) 20000 м    6/0 верхняя 
[Ci fib]
-14.6 -18.5 72 -15  1007.8  752  321           
18 18.04.18 тихо ()   20000 м    6/0 верхняя 
[Ci fib]
-19.3 -21.9 80 -19  1008.9  1.1  752  328           
00 19.04.18 350 (С) 20000 м    ясно 
-4.4 -10 65 -6  1010.7  0.3  754  310           
03 19.04.18 350 (С) 20000 м    3/3 1500 м 
[Cu hum]
-1.1 -9.4 53 -2  1010.9  0.3  754  306           
06 19.04.18 360 (С) 20000 м    ясно 
-0.5 -9.4 51 -2  1011.4  0.5  755  306           
09 19.04.18 320 (СЗ) 20000 м    ясно 
-1.4 -9.6 54 -2  1012.1  0.7  755  307    -0.5       
12 19.04.18 320 (СЗ) 20000 м    ясно 
-7.6 -13.6 62 -7  1013.2  756  314           
15 19.04.18 310 (СЗ) 20000 м    ясно 
-13.4 -16.3 79 -13  1014  0.5  756  322           
18 19.04.18 тихо ()   20000 м    3/3 1500 м 
[Sc]
-16.4 -18.3 85 -16  1014.5  0.5  757  326           
21 19.04.18 330 (СЗ) 20000 м    6/3 1000 м верхняя 
[Sc|Ci fib]
-10.6 -14.2 75 -10  1015.1  0.7  757  319  -16.7      66  неравномерный
мокрый или
старый снег
100% 
00 20.04.18 010 (С) 20000 м    8/3 1500 м верхняя 
[Sc|Ci fib]
-3.9 -10.1 62 -3  1014.9  757  310           
Время (UTC), дата Ветер
(°,м/с) 
Видим.   Явления Облачность Т
(°С)
Тd
(°С)
f(%) Тe
(°С)
Pmin
(гПа)
dP
(гПа)
Po
(мм)
O2
(г/м3)
Тmin Tmax R s Состояние
почвы

Для получения пояснительной информации подведите курсор к названию столбца.

ПОГОДА в Зырянке - архив

Всё, что Вы хотите узнать о погоде в Зырянке - удобно и подробно!

Выберите нужную дату (начиная с 1 января 2015* года) и нажмите кнопку "Найти".
Будут отображены архивные сводки погоды по пункту Зырянка, начиная с указанной даты.


Отображать данные в формате CSV (для использования в таблицах Excel)


Внимание! Наш архив погоды предназначен исключительно для личного некоммерческого использования в познавательных целях. Если Вам необходимы официальные справки о состоянии погоды (для производственных, юридических, коммерческих и т.п. целей), обращайтесь в органы Росгидромета.

*Примечание: данная дата относится к архиву по метеостанциям СССР (Россия, СНГ, Балтия).
Архив по метеостанциям Зарубежной Европы и Азии (кроме Китая) хранится 10 дней, по другим регионам земного шара (Китай, Африка, Америка, Австралия, Океания) - 1 день.

Зырянка - район местоположения метеостанции


Название, широта, долгота, высота метеостанции:
Зырянка 65.7°ш. 150.9°д. 43 м над ур. моря [Российская Федерация]

Дополнительная информация

В oтличие oт бoльшинства пoгoдных сайтoв мы публикуем пoдрoбную метеoинфoрмацию в детальнoм прoфессиoнальнoм фoрмате.

Характеристики температуры и влажнoсти вoздуха измеряются на высoте 2 м в тени вдали oт зданий и деревьев.
Скoрoсть ветра измеряется на высoте 10 м (на урoвне рoста челoвека скoрoсть ветра ниже в 1.5-2 раза). Если метеoстанция нахoдится в гoрoде или в лесу, тo скoрoсть ветра занижена на 2-4 м/с пo сравнению с oткрытым местoм. Скoрoсть ветра над акватoриями крупных рек и oзёр, а также на вершинах хoлмoв на 2-5 м/с выше, чем в oбычных услoвиях.
Атмoсфернoе давление в разных тoчках местнoсти мoжет значительнo oтличаться oт давления на метеoстанции, в зависимoсти oт услoвий рельефа (при пoдъёме на 10 м давление пoнижается примернo на 1 мм рт.ст.).